Location: Unspecified
(0.0000°N, 0.0000°E)
Time: 04:20:44
(UTC+00:00)

Vanguard 3 - Visible Passes

Search period start: 26 October 2014 00:00
Search period end: 05 November 2014 00:00
Orbit: 508 x 3278 km, 33.3° (Epoch: 25 October)

Date Brightness Start Highest point End Pass type
(mag) Time Alt. Az. Time Alt. Az. Time Alt. Az.
26 Oct 9.9 18:19:35 10° SW 18:40:00 84° SE 18:52:37 18° ENE visible
26 Oct 9.9 20:39:49 10° WSW 20:55:40 39° NW 20:57:22 38° NNW visible
27 Oct 9.9 19:22:29 10° WSW 19:41:46 61° NW 19:49:43 32° NNE visible
27 Oct 10.8 21:47:32 10° WNW 21:54:29 18° NW 21:54:29 18° NW visible
28 Oct 8.9 04:43:47 10° NNE 04:44:41 11° NE 04:45:37 10° NE visible
28 Oct 10.0 18:06:39 10° SW 18:27:07 86° NW 18:42:03 12° NE visible
28 Oct 10.1 20:27:36 10° W 20:43:09 34° NW 20:46:48 30° NNW visible
29 Oct 10.2 19:09:52 10° WSW 19:28:57 54° NW 19:39:06 23° NNE visible
29 Oct 10.8 21:36:18 10° WNW 21:43:51 17° NW 21:43:51 17° NW visible
30 Oct 8.5 04:30:40 10° N 04:33:01 17° NE 04:35:33 10° ENE visible
30 Oct 10.2 17:53:53 10° WSW 18:14:08 77° NW 18:30:17 10° NE visible
30 Oct 10.4 20:15:36 10° W 20:30:41 30° NW 20:36:07 24° N visible
31 Oct 10.5 18:57:27 10° WSW 19:16:08 47° NW 19:28:21 16° NNE visible
31 Oct 10.9 21:25:16 10° WNW 21:33:02 15° NNW 21:33:06 15° NNW visible
01 Nov 7.8 04:20:07 22° N 04:21:24 27° NE 04:24:37 10° E visible
01 Nov 10.4 17:41:17 10° WSW 18:01:06 68° NW 18:17:54 10° NE visible
01 Nov 10.5 20:03:50 10° W 20:18:19 27° NW 20:25:18 19° N visible
02 Nov 10.7 18:45:15 10° W 19:03:21 41° NW 19:17:27 11° NNE visible
02 Nov 10.9 21:14:20 10° NW 21:21:17 14° NNW 21:22:12 14° NNW visible
03 Nov 6.8 04:09:32 44° NNE 04:09:49 45° NE 04:13:20 10° ESE visible
03 Nov 10.7 19:52:17 10° WNW 20:06:04 24° NNW 20:14:19 15° N visible
04 Nov 7.3 05:06:36 11° W 05:09:41 30° SW 05:13:08 10° SSE visible
04 Nov 10.8 18:33:17 10° W 18:50:41 37° NNW 19:05:18 10° NNE visible
04 Nov 11.0 21:03:24 10° NW 21:09:41 13° NNW 21:11:07 13° NNW visible
